GW2442 Weather Reports


time (UTC)temp
C
wind
direction
speed
KPH
gust
KPH
rain 1hr
cm
rain 24hr
cm
rain mn
cm
humidity
%
barometer
mb
20260510083207 10 81 0.0 3.2 0.00 0.00 0.00 99 1008.6
20260510082703 10 99 0.0 1.6 0.00 0.00 0.00 99 1008.6
20260510082159 10 110 0.0 1.6 0.00 0.00 0.00 99 1008.4
20260510081653 10 134 0.0 1.6 0.00 0.00 0.00 99 1008.7
20260510081149 10 136 1.6 1.6 0.00 0.00 0.00 99 1008.7
20260510080648 10 138 3.2 3.2 0.00 0.00 0.00 99 1008.4
20260510080146 10 104 1.6 1.6 0.00 0.00 0.00 99 1008.7
20260510075643 10 104 0.0 1.6 0.00 0.00 0.00 99 1009.0
20260510075140 10 104 0.0 1.6 0.00 0.00 0.00 99 1009.0
20260510074637 10 104 0.0 1.6 0.00 0.00 0.00 99 1009.1
20260510074133 10 104 0.0 0.0 0.00 0.00 0.00 99 1009.2
20260510073629 10 102 0.0 0.0 0.00 0.00 0.00 99 1009.1
20260510073126 10 102 0.0 0.0 0.00 0.00 0.00 99 1009.5
20260510072622 10 102 0.0 0.0 0.00 0.00 0.00 99 1009.2
20260510072119 10 102 0.0 0.0 0.00 0.00 0.00 99 1009.3
20260510071614 10 102 0.0 0.0 0.00 0.00 0.00 99 1009.4
20260510071112 10 102 0.0 0.0 0.00 0.00 0.00 99 1009.3
20260510070609 10 100 0.0 1.6 0.00 0.00 0.00 99 1009.3
20260510070107 10 108 0.0 1.6 0.00 0.00 0.00 99 1009.3
20260510065603 10 94 0.0 0.0 0.00 0.00 0.00 99 1009.3
20260510065059 10 42 1.6 3.2 0.00 0.00 0.00 99 1009.4
20260510064555 10 309 3.2 3.2 0.00 0.00 0.00 99 1009.4
20260510064052 10 83 1.6 1.6 0.00 0.00 0.00 99 1009.0
20260510063549 10 122 0.0 1.6 0.00 0.00 0.00 99 1008.9
20260510063046 10 139 0.0 0.0 0.00 0.00 0.00 99 1008.9
20260510062542 10 100 0.0 0.0 0.00 0.00 0.00 99 1008.8
20260510062037 10 128 0.0 0.0 0.00 0.00 0.00 99 1008.9
20260510061534 10 121 0.0 1.6 0.00 0.00 0.00 99 1008.7
20260510061031 10 121 0.0 0.0 0.00 0.00 0.00 99 1008.9
20260510060527 10 119 0.0 0.0 0.00 0.00 0.00 99 1008.7
20260510060023 10 119 0.0 0.0 0.00 0.00 0.00 99 1009.0
20260510055520 10 119 0.0 0.0 0.00 0.00 0.00 99 1009.1
20260510055018 10 119 0.0 0.0 0.00 0.00 0.00 99 1009.3
20260510054513 10 93 0.0 1.6 0.00 0.00 0.00 99 1009.1
20260510054009 10 93 0.0 0.0 0.00 0.00 0.00 99 1009.2
20260510053503 10 93 0.0 0.0 0.00 0.00 0.00 99 1009.0
20260510053001 10 97 0.0 1.6 0.00 0.00 0.00 99 1008.8
20260510052456 10 111 0.0 0.0 0.00 0.00 0.00 99 1009.0
20260510051953 10 101 0.0 1.6 0.00 0.00 0.00 99 1008.7
20260510051448 10 106 0.0 1.6 0.00 0.00 0.00 99 1008.9
20260510050945 10 53 1.6 3.2 0.00 0.00 0.00 99 1008.7
20260510050442 10 71 1.6 1.6 0.00 0.00 0.00 99 1008.8
20260510045939 10 100 0.0 0.0 0.00 0.00 0.00 99 1008.7
20260510045436 10 129 0.0 1.6 0.00 0.00 0.00 99 1008.7
20260510044933 10 127 0.0 3.2 0.00 0.00 0.00 99 1008.6
20260510044430 10 107 0.0 0.0 0.00 0.00 0.00 99 1008.7
20260510043927 10 61 1.6 3.2 0.00 0.00 0.00 99 1008.5
20260510043422 10 132 0.0 0.0 0.00 0.00 0.00 99 1008.9
20260510042921 10 98 0.0 3.2 0.00 0.00 0.00 99 1008.4
20260510042416 10 129 0.0 1.6 0.00 0.00 0.00 99 1008.7
20260510041912 10 111 0.0 3.2 0.00 0.00 0.00 99 1008.6
20260510041410 10 128 0.0 0.0 0.00 0.00 0.00 99 1008.5
20260510040908 10 95 1.6 1.6 0.00 0.00 0.00 99 1008.6
20260510040404 10 109 0.0 1.6 0.00 0.00 0.00 99 1008.7
20260510035900 10 75 0.0 1.6 0.00 0.69 0.69 99 1008.6
20260510035356 10 136 1.6 1.6 0.00 0.69 0.69 99 1008.5
20260510034851 10 136 0.0 1.6 0.00 0.69 0.69 99 1008.5
20260510034349 10 120 0.0 1.6 0.00 0.69 0.69 99 1008.4
20260510033846 10 104 0.0 1.6 0.00 0.69 0.69 99 1008.5
20260510033342 10 139 0.0 1.6 0.00 0.69 0.69 99 1008.3
20260510032839 10 98 0.0 1.6 0.00 0.69 0.69 99 1008.4
20260510032336 10 111 0.0 1.6 0.00 0.69 0.69 99 1008.4
20260510031831 10 103 0.0 1.6 0.00 0.69 0.69 99 1008.4
20260510031326 10 119 0.0 1.6 0.00 0.69 0.69 99 1008.3
20260510030821 10 117 0.0 1.6 0.00 0.69 0.69 99 1008.4
20260510030318 10 106 0.0 0.0 0.00 0.69 0.69 99 1008.1
20260510025815 10 125 0.0 0.0 0.00 0.69 0.69 99 1008.2
20260510025312 10 142 1.6 1.6 0.00 0.69 0.69 99 1008.2
20260510024809 10 111 0.0 1.6 0.00 0.69 0.69 99 1008.4
20260510024306 10 117 0.0 0.0 0.00 0.69 0.69 99 1008.3
20260510023802 9 120 0.0 0.0 0.00 0.69 0.69 99 1008.2
20260510023259 9 120 0.0 0.0 0.00 0.69 0.69 99 1008.2
20260510022755 9 120 0.0 0.0 0.00 0.69 0.69 99 1008.3
20260510022250 9 121 0.0 0.0 0.00 0.69 0.69 99 1008.5
20260510021749 9 121 0.0 0.0 0.00 0.69 0.69 99 1008.5
20260510021247 10 121 0.0 1.6 0.00 0.69 0.69 99 1008.4
20260510020742 10 119 0.0 1.6 0.00 0.69 0.69 99 1008.2
20260510020237 9 119 0.0 1.6 0.00 0.69 0.69 99 1008.4
20260510015734 9 112 0.0 0.0 0.00 0.69 0.69 99 1008.3
20260510015230 9 112 0.0 0.0 0.00 0.69 0.69 99 1008.4
20260510014724 10 112 0.0 0.0 0.00 0.69 0.69 98 1008.2
20260510014222 10 111 0.0 0.0 0.00 0.69 0.69 98 1008.2
20260510013718 10 121 0.0 1.6 0.00 0.69 0.69 98 1008.2
20260510013213 10 111 0.0 1.6 0.00 0.69 0.69 98 1008.1
20260510012708 10 111 1.6 1.6 0.00 0.69 0.69 98 1008.0
20260510012203 10 109 0.0 1.6 0.00 0.69 0.69 98 1008.0
20260510011658 10 108 0.0 0.0 0.00 0.69 0.69 98 1008.0
20260510011154 10 108 0.0 0.0 0.00 0.69 0.69 98 1008.1
20260510010650 10 107 0.0 0.0 0.00 0.69 0.69 98 1008.0
20260510010148 10 109 0.0 0.0 0.00 0.69 0.69 98 1007.8
20260510005643 10 108 0.0 1.6 0.00 0.69 0.69 98 1007.8
20260510005141 10 109 0.0 1.6 0.00 0.69 0.69 97 1008.0
20260510004639 10 109 0.0 0.0 0.00 0.69 0.69 97 1007.8
20260510004137 10 118 0.0 1.6 0.00 0.69 0.69 97 1008.0
20260510003633 10 118 0.0 0.0 0.00 0.69 0.69 97 1007.7
20260510003129 10 118 0.0 0.0 0.00 0.69 0.69 97 1007.6
20260510002624 10 117 0.0 0.0 0.00 0.69 0.69 97 1007.5
20260510002121 10 125 0.0 0.0 0.00 0.69 0.69 96 1007.5
20260510001617 10 124 0.0 0.0 0.00 0.69 0.69 96 1007.4
20260510001117 11 125 0.0 0.0 0.00 0.69 0.69 96 1007.5
20260510000616 11 125 0.0 1.6 0.00 0.69 0.69 95 1007.1
20260510000114 11 124 1.6 1.6 0.00 0.69 0.69 95 1007.1
20260509235610 11 124 0.0 1.6 0.00 0.69 0.69 94 1007.2
20260509235107 11 117 0.0 1.6 0.00 0.69 0.69 93 1007.1
20260509234603 12 115 1.6 1.6 0.00 0.69 0.69 92 1007.0
20260509234101 12 98 0.0 1.6 0.00 0.69 0.69 91 1006.8
20260509233558 12 55 3.2 3.2 0.00 0.69 0.69 91 1007.0
20260509233055 12 105 0.0 1.6 0.00 0.69 0.69 90 1007.0
20260509232552 12 131 0.0 3.2 0.00 0.69 0.69 90 1007.1
20260509232049 12 147 1.6 3.2 0.00 0.69 0.69 89 1007.0
20260509231545 13 108 0.0 1.6 0.00 0.69 0.69 89 1006.9
20260509231043 13 109 0.0 1.6 0.00 0.69 0.69 88 1006.9
20260509230539 13 109 0.0 3.2 0.00 0.69 0.69 86 1006.9
20260509230037 13 129 1.6 1.6 0.00 0.69 0.69 85 1007.1
20260509225532 14 119 1.6 1.6 0.00 0.69 0.69 85 1006.9
20260509225028 14 133 0.0 3.2 0.00 0.69 0.69 86 1006.8
20260509224524 14 151 1.6 1.6 0.00 0.69 0.69 85 1006.8
20260509224020 13 131 0.0 1.6 0.00 0.69 0.69 88 1007.1
20260509223517 13 128 0.0 1.6 0.00 0.69 0.69 87 1007.1
20260509223016 13 139 0.0 1.6 0.00 0.69 0.69 86 1007.1
20260509222511 13 122 0.0 0.0 0.00 0.69 0.69 88 1007.1
20260509222007 13 113 0.0 1.6 0.00 0.69 0.69 88 1006.9
20260509221503 13 137 1.6 1.6 0.00 0.69 0.69 88 1007.1
20260509220959 12 122 0.0 1.6 0.00 0.69 0.69 89 1007.1
20260509220455 13 128 0.0 1.6 0.00 0.69 0.69 89 1006.9
20260509215951 13 136 0.0 1.6 0.00 0.69 0.69 89 1007.2
20260509215446 13 138 0.0 1.6 0.00 0.69 0.69 89 1007.2
20260509214945 13 69 1.6 1.6 0.00 0.69 0.69 90 1007.2
20260509214442 12 49 3.2 3.2 0.00 0.69 0.69 93 1007.4
20260509213938 12 100 1.6 3.2 0.00 0.69 0.69 93 1007.3
20260509213434 12 136 1.6 4.8 0.00 0.69 0.69 93 1007.4
20260509212931 12 96 0.0 1.6 0.00 0.69 0.69 93 1007.5
20260509212429 12 347 1.6 4.8 0.00 0.69 0.69 93 1007.4
20260509211925 12 68 1.6 3.2 0.00 0.69 0.69 94 1007.3
20260509211420 12 228 1.6 4.8 0.00 0.69 0.69 95 1007.5
20260509210917 11 124 0.0 3.2 0.00 0.69 0.69 95 1007.3
20260509210415 11 126 0.0 1.6 0.00 0.69 0.69 95 1007.5
20260509205910 11 112 0.0 1.6 0.00 0.69 0.69 95 1007.3
20260509205409 11 135 0.0 1.6 0.00 0.69 0.69 95 1007.4
20260509204906 11 130 0.0 1.6 0.00 0.69 0.69 95 1007.6
20260509204402 11 77 1.6 3.2 0.00 0.69 0.69 95 1007.5
20260509203859 11 85 1.6 1.6 0.00 0.69 0.69 96 1007.4
20260509203355 11 120 0.0 0.0 0.00 0.69 0.69 96 1007.5
20260509202852 11 135 0.0 1.6 0.00 0.69 0.69 96 1007.5
20260509202348 11 115 0.0 1.6 0.00 0.69 0.69 96 1007.6
20260509201843 11 153 1.6 1.6 0.00 0.69 0.69 96 1007.4
20260509201339 11 144 0.0 1.6 0.00 0.69 0.69 96 1008.0
20260509200835 11 137 0.0 3.2 0.00 0.69 0.69 97 1007.4
20260509200326 11 134 0.0 1.6 0.13 0.69 0.69 97 1007.6
20260509195822 10 99 0.0 1.6 0.13 0.69 0.69 97 1007.6
20260509195317 10 137 0.0 1.6 0.00 0.66 0.66 97 1008.0
20260509194817 10 73 1.6 1.6 0.18 0.66 0.66 97 1008.0
20260509194313 10 74 1.6 1.6 0.18 0.66 0.66 97 1008.3
20260509193810 10 123 0.0 1.6 0.18 0.64 0.64 97 1008.4
20260509193309 10 113 0.0 1.6 0.18 0.64 0.64 97 1008.5
20260509192806 10 133 0.0 1.6 0.13 0.61 0.61 97 1008.4
20260509192305 10 128 0.0 1.6 0.30 0.61 0.61 97 1008.4
20260509191757 11 125 0.0 3.2 0.30 0.58 0.58 97 1008.5
20260509191254 11 114 0.0 1.6 0.13 0.56 0.56 97 1008.7
20260509190749 11 132 0.0 1.6 0.18 0.53 0.53 96 1008.8
20260509190247 11 130 0.0 1.6 0.18 0.53 0.53 96 1008.8
20260509185744 11 116 0.0 1.6 0.13 0.51 0.51 96 1008.8
20260509185240 11 155 3.2 3.2 0.13 0.51 0.51 96 1008.9
20260509184738 11 158 1.6 4.8 0.18 0.48 0.48 96 1008.9
20260509184235 11 107 0.0 3.2 0.18 0.48 0.48 96 1008.8
20260509183731 11 124 0.0 1.6 0.13 0.46 0.46 96 1009.0
20260509183226 11 135 0.0 4.8 0.13 0.46 0.46 96 1008.9
20260509182722 11 62 1.6 1.6 0.18 0.43 0.43 96 1009.0
20260509182220 11 131 0.0 1.6 0.13 0.41 0.41 96 1008.9
20260509181717 11 131 0.0 1.6 0.30 0.41 0.41 96 1009.1
20260509181215 11 147 0.0 1.6 0.30 0.38 0.38 96 1008.9
20260509180712 11 123 1.6 1.6 0.30 0.36 0.36 96 1009.0
20260509180208 11 114 1.6 3.2 0.36 0.33 0.33 95 1009.1
20260509175704 11 63 0.0 1.6 0.30 0.30 0.30 96 1008.8
20260509175201 11 95 0.0 1.6 0.30 0.25 0.25 95 1009.0
20260509174656 11 122 0.0 1.6 0.30 0.23 0.23 95 1009.2
20260509174151 11 139 0.0 1.6 0.30 0.20 0.20 95 1009.1
20260509173648 11 140 1.6 1.6 0.13 0.18 0.18 94 1009.2
20260509173143 11 126 0.0 1.6 0.18 0.15 0.15 94 1009.2
20260509172640 11 120 0.0 1.6 0.18 0.15 0.15 94 1009.0
20260509172136 11 130 0.0 1.6 0.13 0.13 0.13 93 1008.9
20260509171632 11 149 1.6 3.2 0.13 0.13 0.13 92 1009.2
20260509171128 11 135 0.0 3.2 0.18 0.10 0.10 92 1009.0
20260509170625 12 95 0.0 1.6 0.18 0.10 0.10 92 1009.0
20260509170121 12 104 0.0 1.6 0.13 0.08 0.08 91 1009.1
20260509165619 12 89 0.0 1.6 0.13 0.08 0.08 90 1009.0
20260509165115 12 64 0.0 3.2 0.00 0.05 0.05 90 1009.0
20260509164611 12 123 1.6 1.6 0.00 0.05 0.05 89 1009.0
20260509164107 12 142 0.0 1.6 0.00 0.05 0.05 89 1008.8
20260509163606 12 108 0.0 1.6 0.00 0.05 0.05 90 1009.1
20260509163101 12 127 1.6 3.2 0.00 0.05 0.05 90 1008.9
20260509162558 12 94 0.0 3.2 0.00 0.05 0.05 90 1008.9
20260509162054 11 144 1.6 1.6 0.00 0.05 0.05 91 1008.7
20260509161550 11 139 1.6 3.2 0.00 0.05 0.05 92 1009.1
20260509161045 11 77 0.0 1.6 0.00 0.05 0.05 93 1009.2
20260509160541 11 105 1.6 1.6 0.00 0.05 0.05 93 1009.3
20260509160037 11 100 0.0 1.6 0.00 0.05 0.05 93 1009.4
20260509155533 11 151 0.0 3.2 0.00 0.05 0.05 93 1009.5
20260509155029 11 209 1.6 1.6 0.00 0.05 0.05 93 1009.3
20260509154526 11 140 0.0 0.0 0.00 0.05 0.05 92 1008.9
20260509154023 11 110 0.0 0.0 0.00 0.05 0.05 92 1009.1
20260509153520 11 133 0.0 0.0 0.00 0.05 0.05 91 1009.0
20260509153017 11 111 0.0 0.0 0.18 0.05 0.05 91 1009.1
20260509152513 11 111 0.0 1.6 0.18 0.05 0.05 90 1009.2
20260509152009 11 97 0.0 1.6 0.00 0.03 0.03 89 1009.1
20260509151506 11 113 0.0 0.0 0.00 0.03 0.03 90 1009.4
20260509151005 11 133 0.0 0.0 0.00 0.03 0.03 91 1009.5
20260509150501 11 77 1.6 3.2 0.00 0.03 0.03 90 1009.6
20260509150000 11 126 0.0 0.0 0.00 0.03 0.03 91 1009.6
20260509145455 11 106 0.0 0.0 0.00 0.03 0.03 90 1009.3
20260509144950 11 35 1.6 3.2 0.00 0.03 0.03 90 1009.6
20260509144447 11 85 1.6 1.6 0.00 0.03 0.03 89 1009.7
20260509143944 11 112 0.0 1.6 0.00 0.03 0.03 89 1009.4
20260509143441 11 143 0.0 1.6 0.00 0.03 0.03 89 1009.4
20260509142938 11 129 0.0 1.6 0.18 0.03 0.03 88 1009.5
20260509142434 11 91 0.0 0.0 0.18 0.03 0.03 88 1009.4
20260509141930 11 97 1.6 1.6 0.00 0.00 0.00 87 1009.3
20260509141427 11 109 0.0 0.0 0.00 0.00 0.00 86 1009.3
20260509140924 11 109 0.0 0.0 0.00 0.00 0.00 85 1009.1
20260509140420 11 101 0.0 1.6 0.00 0.00 0.00 85 1009.1
20260509135918 11 98 0.0 1.6 0.00 0.00 0.00 83 1009.1
20260509135416 11 121 0.0 0.0 0.00 0.00 0.00 84 1009.2
20260509134913 11 116 0.0 0.0 0.00 0.00 0.00 83 1009.1
20260509134410 11 93 0.0 1.6 0.00 0.00 0.00 82 1009.0
20260509133907 11 95 0.0 1.6 0.00 0.00 0.00 82 1008.9
20260509133404 11 100 0.0 0.0 0.00 0.00 0.00 81 1008.9
20260509132902 11 100 1.6 1.6 0.00 0.00 0.00 80 1009.0
20260509132400 11 141 0.0 1.6 0.00 0.00 0.00 80 1009.2
20260509131857 11 102 0.0 1.6 0.00 0.00 0.00 81 1009.3
20260509131354 11 112 0.0 0.0 0.00 0.00 0.00 80 1009.2
20260509130850 11 101 0.0 1.6 0.00 0.00 0.00 80 1009.1
20260509130346 11 103 1.6 1.6 0.00 0.00 0.00 79 1009.4
20260509125843 11 118 0.0 1.6 0.00 0.00 0.00 80 1009.5
20260509125339 11 95 0.0 1.6 0.00 0.00 0.00 80 1009.6
20260509124835 11 126 0.0 0.0 0.00 0.00 0.00 82 1009.6
20260509124333 11 73 1.6 1.6 0.00 0.00 0.00 80 1009.5
20260509123831 10 103 0.0 1.6 0.00 0.00 0.00 81 1009.6
20260509123328 10 149 0.0 1.6 0.00 0.00 0.00 81 1009.7
20260509122823 10 108 0.0 1.6 0.00 0.00 0.00 83 1009.4
20260509122320 10 101 0.0 1.6 0.00 0.00 0.00 82 1009.5
20260509121817 10 91 0.0 0.0 0.00 0.00 0.00 83 1009.3
20260509121314 10 90 0.0 1.6 0.00 0.00 0.00 85 1009.6
20260509120813 10 101 0.0 1.6 0.00 0.00 0.00 87 1009.4
20260509120310 10 99 0.0 1.6 0.00 0.00 0.00 90 1009.5
20260509115808 10 98 0.0 1.6 0.00 0.00 0.00 91 1009.5
20260509115307 9 102 0.0 0.0 0.00 0.00 0.00 90 1009.5
20260509114803 9 87 1.6 1.6 0.00 0.00 0.00 91 1009.5
20260509114302 9 149 0.0 1.6 0.00 0.00 0.00 91 1009.6
20260509113800 9 153 1.6 1.6 0.00 0.00 0.00 92 1008.9
20260509113256 9 90 1.6 1.6 0.00 0.00 0.00 92 1008.7
20260509112753 8 89 1.6 1.6 0.00 0.00 0.00 93 1008.7
20260509112250 9 91 1.6 1.6 0.00 0.00 0.00 93 1009.0
20260509111747 8 114 0.0 0.0 0.00 0.00 0.00 92 1009.1
20260509111244 8 115 0.0 0.0 0.00 0.00 0.00 92 1009.3
20260509110741 8 114 0.0 0.0 0.00 0.00 0.00 92 1008.9
20260509110238 8 114 0.0 1.6 0.00 0.00 0.00 92 1009.0
20260509105736 8 95 0.0 1.6 0.00 0.00 0.00 94 1009.1
20260509105233 8 95 3.2 3.2 0.00 0.00 0.00 94 1009.0
20260509104730 8 95 1.6 1.6 0.00 0.00 0.00 94 1009.2
20260509104227 8 106 0.0 1.6 0.00 0.00 0.00 92 1009.1
20260509103725 8 108 0.0 0.0 0.00 0.00 0.00 91 1009.4
20260509103222 8 108 0.0 1.6 0.00 0.00 0.00 91 1009.3
20260509102720 8 107 0.0 1.6 0.00 0.00 0.00 91 1009.3
20260509102217 8 111 0.0 1.6 0.00 0.00 0.00 90 1009.2
20260509101714 8 111 1.6 1.6 0.00 0.00 0.00 90 1009.2
20260509101210 8 111 1.6 1.6 0.00 0.00 0.00 90 1009.2
20260509100708 8 113 0.0 1.6 0.00 0.00 0.00 89 1009.3
20260509100204 8 112 0.0 1.6 0.00 0.00 0.00 91 1009.3
20260509095701 8 113 0.0 0.0 0.00 0.00 0.00 92 1009.3
20260509095158 8 113 0.0 0.0 0.00 0.00 0.00 93 1009.3
20260509094655 8 113 0.0 0.0 0.00 0.00 0.00 92 1009.2
20260509094152 8 113 0.0 0.0 0.00 0.00 0.00 92 1009.1
20260509093651 8 113 0.0 0.0 0.00 0.00 0.00 90 1009.3
20260509093147 8 113 0.0 0.0 0.00 0.00 0.00 90 1009.3
20260509092645 8 113 0.0 0.0 0.00 0.00 0.00 90 1009.1
20260509092143 8 113 0.0 0.0 0.00 0.00 0.00 91 1009.3
20260509091641 8 113 0.0 0.0 0.00 0.00 0.00 91 1009.4
20260509091137 8 113 0.0 0.0 0.00 0.00 0.00 93 1009.6
20260509090635 8 113 0.0 0.0 0.00 0.00 0.00 92 1009.4
20260509090132 8 113 0.0 0.0 0.00 0.00 0.00 92 1009.5
20260509085629 8 113 0.0 0.0 0.00 0.00 0.00 90 1009.5
20260509085125 8 113 0.0 0.0 0.00 0.00 0.00 90 1009.6
20260509084623 8 113 0.0 1.6 0.00 0.00 0.00 88 1009.4
20260509084120 8 114 0.0 1.6 0.00 0.00 0.00 88 1009.6
20260509083617 8 114 0.0 1.6 0.00 0.00 0.00 89 1009.7